Regional Weather Roundup
Issued by NWS San Angelo, TX

Home | Current Version | Previous Version | Text Only | Print | Product List | Glossary On
Versions: 1 2 3 4 5 6 7 8 9 10 11 12 13 14 15 16 17 18 19 20 21 22 23 24 25 26 27 28 29 30 31 32 33 34 35 36 37 38 39 40 41 42 43 44 45 46 47 48 49 50
000
ASUS44 KSJT 200910
RWRSJT
WEST CENTRAL TEXAS REGIONAL WEATHER ROUNDUP
NATIONAL WEATHER SERVICE SAN ANGELO TX
300 AM CST FRI JAN 20 2017

NOTE: "FAIR" INDICATES FEW OR NO CLOUDS BELOW 12,000 FEET WITH NO
SIGNIFICANT WEATHER AND/OR OBSTRUCTIONS TO VISIBILITY.

TXZ049-054-064>066-071>073-076>078-098-099-113-114-127-128-139-140-
154-155-168>170-201000
...LOCATIONS ACROSS WEST CENTRAL TEXAS...

CITY           SKY/WX    TMP DP  RH WIND       PRES   REMARKS
SAN ANGELO     CLEAR     56  31  38 W15       29.71S
ABILENE        CLEAR     50  33  52 SW12      29.66S
DYESS AFB      CLEAR     54  29  38 SW15G22   29.64F
JUNCTION       CLEAR     39  37  92 NW3       29.76R
SWEETWATER     CLEAR     51  34  51 SW17      29.70R
BROWNWOOD      PTCLDY    50  32  50 SW8       29.70S
COLEMAN        SUNNY     54  32  43 SW8       29.70S
SONORA         CLEAR     37  34  87 CALM      29.81S
OZONA          FAIR      50  30  46 MISG      29.80S
BRADY          NOT AVBL
$$

TEXAS PANHANDLE/OKLAHOMA PANHANDLE

CITY           SKY/WX    TMP DP  RH WIND       PRES   REMARKS
AMARILLO       CLEAR     46  32  58 W21G30    29.49R WCI  38
BORGER         FOG       32  32 100 CALM      29.46F VSB 1/4
CANADIAN       CLOUDY    33  32  97 CALM      29.49F FOG
DALHART        LGT RAIN  36  34  92 N13       29.48R FOG     WCI  27
DUMAS          FOG       32  31  97 N8        29.45F VSB 1/4 WCI  25
GUYMON         NOT AVBL
HEREFORD       SUNNY     46  35  64 W23G36    29.55R WCI  38
PAMPA          CLOUDY    38  33  83 S9        29.47F WCI  31
PERRYTON       NOT AVBL
$$

SOUTHERN PANHANDLE/SOUTH PLAINS/ROLLING PLAINS

CITY           SKY/WX    TMP DP  RH WIND       PRES   REMARKS
LUBBOCK        PTCLDY    47  34  60 W24       29.61R WCI  39
SNYDER         CLEAR     46  34  63 SW12      29.68S
CHILDRESS      CLEAR     44  34  67 SW9       29.53S WCI  39
SEMINOLE       SUNNY     47  32  56 W18       29.71F WCI  39
$$

PERMIAN BASIN

CITY           SKY/WX    TMP DP  RH WIND       PRES   REMARKS
MIDLAND        CLEAR     52  32  46 W20       29.74R
ODESSA         CLEAR     51  31  46 W16       29.75R
WINK           CLEAR     49  31  49 SW13      29.76R
$$

FAR WEST/SOUTHWEST MOUNTAINS/TRANS PECOS

CITY           SKY/WX    TMP DP  RH WIND       PRES   REMARKS
ALPINE         SUNNY     53  24  32 W24G31    29.87F
DRYDEN           N/A     46  30  53 W9        29.78S
EL PASO        PTCLDY    47  27  45 SW14      29.83S
FORT STOCKTON  CLEAR     49  29  46 W12       29.80S
GUADALUPE PASS NOT AVBL
MARFA          CLEAR     40  27  59 W8        29.88F WCI  34
PECOS          SUNNY     46  30  53 CALM      29.79S
$$

DALLAS/FORT WORTH METROPLEX

CITY           SKY/WX    TMP DP  RH WIND       PRES   REMARKS
DFW AIRPORT    CLEAR     50  46  86 SW12      29.60R
FTW MEACHAM    CLEAR     53  38  56 S8        29.61S
DAL-EXECUTIVE  CLEAR     55  44  66 SW9       29.62S
GRAND PRAIRIE  CLEAR     51  47  86 S6        29.64S
ADDISON        CLEAR     54  50  86 S5        29.63S
MESQUITE       SUNNY     51  51  99 S9        29.64R
LANCASTER      SUNNY     52  48  86 SW5       29.64F
$$

NORTH CENTRAL TEXAS

CITY           SKY/WX    TMP DP  RH WIND       PRES   REMARKS
SHRMAN/DENISON SUNNY     52  50  93 S14       29.58F
GAINESVILLE    CLEAR     45  40  82 S5        29.60S
BRIDGEPORT     SUNNY     52  38  58 SW8       29.61S
DENTON         CLEAR     49  41  74 S8        29.60S
WAXAHACHIE     SUNNY     50  47  90 SW7       29.66R
GRANBURY       SUNNY     55  36  49 SW8       29.65S
$$

WESTERN NORTH TEXAS

CITY           SKY/WX    TMP DP  RH WIND       PRES   REMARKS
WICHITA FALLS  CLEAR     47  37  68 SW14      29.54R
VERNON         SUNNY     45  33  61 SW9       29.55F
BRECKENRIDGE   SUNNY     55  33  44 SW14      29.63S
COMANCHE       CLEAR     50  34  52 S7        29.68S
$$

CENTRAL AND SOUTH CENTRAL TEXAS

CITY           SKY/WX    TMP DP  RH WIND       PRES   REMARKS
AUSTIN/BERGSTM MOCLDY    54  52  93 SW5       29.73S FOG
WACO           CLEAR     51  48  89 SW10      29.68S
HILLSBORO      SUNNY     51  48  90 S10       29.67R
TEMPLE         CLEAR     48  47  96 S7        29.71S
KILLEEN-GRAY   CLEAR     56  41  57 SW9       29.70R
FORT HOOD      CLEAR     51  43  72 CALM      29.68R
GEORGETOWN     CLEAR     52  45  76 SW7       29.73S
LAGO VISTA     FAIR      56  47  69 W5        29.74S
SAN MARCOS     CLOUDY    55  55 100 SW7       29.74F VSB 1/4
NEW BRAUNFELS  FOG       57  56  96 SW6       29.73F VSB 1/4
RANDOLPH AFB   FOG       57  57 100 SW3       29.74F VSB<1/4
SAN ANTONIO    CLEAR     49  46  90 NW3       29.75S
STINSON        FOG       55  53  93 CALM      29.73F VSB 1/4
PLEASANTON     NOT AVBL
LA GRANGE      FOG       59  59  99 SW6       29.73S VSB 3/4
GIDDINGS       FOG       57  56  99 SW8       29.75S VSB 1/2
$$

EAST TEXAS

CITY           SKY/WX    TMP DP  RH WIND       PRES   REMARKS
PARIS          CLEAR     54  50  87 S13       29.62S
CLARKSVILLE    NOT AVBL
TYLER          CLEAR     55  54  96 S12       29.66S
LONGVIEW       CLEAR     56  56 100 S12       29.67S
PALESTINE      CLOUDY    58  58 100 S10       29.72R FOG
NACOGDOCHES    CLOUDY    59  55  88 SW8       29.72R
$$

TEXAS HILL COUNTRY AND EDWARDS PLATEAU

CITY           SKY/WX    TMP DP  RH WIND       PRES   REMARKS
LLANO          SUNNY     43  39  87 CALM      29.76S
HORSESHOE BAY  FAIR      45  42  88 CALM      29.72F
KERRVILLE      CLEAR     41  39  93 CALM      29.76S
FREDERICKSBRG  CLEAR     45  38  75 W3        29.76R
ROCKSPRINGS    SUNNY     54  39  58 CALM      29.79F
HONDO          CLOUDY    47  43  86 N9        29.75R
UVALDE         CLOUDY    50  44  81 CALM      29.75S
DEL RIO        CLEAR     44  42  93 CALM      29.76R
$$

SOUTHEAST TEXAS

CITY           SKY/WX    TMP DP  RH WIND       PRES   REMARKS
COLLEGE STN    CLOUDY    60  59  96 S9        29.74R FOG
CALDWELL       NOT AVBL
CROCKETT       CLOUDY    59  57  94 SW8       29.76R
BRENHAM        CLOUDY    60  60  99 SW6       29.76R FOG
HUNTSVILLE     MOCLDY    59  57  93 SW7       29.73R
CONROE         CLOUDY    60  58  92 S9        29.75R
HOUSTON BUSH   FOG       60  59  96 SW7       29.75S VSB 1/4
HOUSTON HOBBY  FOG       58  58 100 SW5       29.75S VSB 1/4
PERLAND        FOG       59  57  93 S3        29.77S VSB 1/2
WHARTON        CLOUDY    60  59  99 SW6       29.78S FOG
$$

THE UPPER TEXAS COAST

CITY           SKY/WX    TMP DP  RH WIND       PRES   REMARKS
ORANGE         FOG      N/A N/A N/A SW3       29.78R VSB 1/2
PORT ARTHUR    CLOUDY    64  63  96 SW6       29.75S FOG
GALVESTON      FOG       62  62 100 S5        29.77R VSB 1/2
ANGLETON       FOG       60  59  96 CALM      29.77R VSB 1/4
BAY CITY       CLOUDY    59  59 100 CALM      29.77S FOG
$$

TEXAS COASTAL BEND, RIO GRANDE PLAINS DEEP SOUTH TEXAS

CITY           SKY/WX    TMP DP  RH WIND       PRES   REMARKS
VICTORIA       CLOUDY    61  59  93 SW5       29.77S FOG
BEEVILLE       FOG       52  52 100 S3        29.75S VSB 1/2
ROCKPORT       CLOUDY    64  63  96 SW5       29.76R FOG
PORT ARANSAS   CLOUDY    64  63  98 S7        29.75F FOG
PORT LAVACA    CLOUDY    62  62 100 CALM      29.77R
CORPUS CHRISTI DRIZZLE   62  62 100 SW8       29.75F FOG
KINGSVILLE NAS CLOUDY    63  63 100 S7        29.75S FOG
COTULLA        PTCLDY    56  53  90 E6        29.71F
LAREDO         PTCLDY    60  58  92 SE6       29.73S
BROWNSVILLE    CLOUDY    69  68  96 S5        29.72F
PORT ISABEL    CLOUDY    68  68 100 S3        29.72S FOG
HEBBRONVILLE   FOG       60  59  97 S7        29.75S VSB 1/2
MCALLEN        CLOUDY    69  67  93 SE7       29.72F FOG
WESLACO        CLOUDY    67  67  98 SE3       29.71F FOG
FALFURRIAS     CLOUDY    64  62  96 CALM      29.75S
EDINBURG       CLOUDY    69  66  93 CALM      29.73S FOG
$$



USA.gov is the U.S. government's official web portal to all federal, state and local government web resources and services.